Location: Brienzwiler
(46.7508°N, 8.1014°E)
Time: 07:23:13
(UTC+00:00)

Cosmos 405 - Pass Details

Date: 05 July 2020
Orbit: 450 x 465 km, 81.3° (Epoch: 05 August)

Event Time Altitude Azimuth Distance (km) Brightness Sun altitude
Rises 23:23:03 0° 352° (N) 2,508 8.3 -20.6°
Reaches altitude 10° 23:25:11 10° 357° (N) 1,625 6.9 -20.6°
Maximum altitude 23:28:41 56° 77° (ENE) 557 3.3 -20.6°
Enters shadow 23:28:55 54° 96° (E) 566 3.2 -20.6°
